Regional Weather Roundup
Issued by NWS

Home | Current Version | Previous Version | Graphics & Text | Print | Product List | Glossary On
Versions: 1 2 3 4 5 6 7 8 9 10 11 12 13 14 15 16 17 18 19 20 21 22 23 24 25 26 27 28 29 30 31 32 33 34 35 36 37 38 39 40 41 42 43 44 45 46 47 48 49 50
000
ASUS43 KOAX 221602
RWRNE

WEATHER ROUNDUP FOR NEBRASKA
NATIONAL WEATHER SERVICE OMAHA NE
1000 AM CST MON DEC 22 2014

NOTES: SATELLITE DATA IS BEING USED TO AUGMENT CLOUD COVER ABOVE
       12000 FEET.
       "FAIR" INDICATES FEW OR NO CLOUDS BELOW 12,000 FEET WITH NO
       SIGNIFICANT WEATHER AND/OR OBSTRUCTIONS TO VISIBILITY.

  * THESE STATIONS DO NOT REPORT WEATHER SUCH AS RAIN...SNOW OR FOG.

NEZ001>004-019>022-054>056-221700-
NEBRASKA PANHANDLE

CITY           SKY/WX    TMP DP  RH WIND       PRES   REMARKS
SCOTTSBLUFF    MOSUNNY   33  25  72 W10       29.69S WCI  25
ALLIANCE       MOSUNNY   31  23  72 W20       29.63S WCI  19
CHADRON        MOSUNNY   34  26  72 W10       29.65S WCI  26
SIDNEY         MOSUNNY   34  26  72 NW16      29.67S WCI  24
$$

NEZ057>060-069>072-079>082-221700-
SOUTHWEST NEBRASKA

CITY           SKY/WX    TMP DP  RH WIND       PRES   REMARKS
NORTH PLATTE   PTSUNNY   37  30  75 W16       29.59S WCI  28
IMPERIAL       PTSUNNY   39  27  62 NW17      29.64F WCI  30
MCCOOK         CLOUDY    40  32  73 W8        29.62F WCI  34
$$

NEZ005>010-023>029-035>040-094-221700-
NORTH CENTRAL NEBRASKA

CITY           SKY/WX    TMP DP  RH WIND       PRES   REMARKS
VALENTINE      CLOUDY    38  31  76 NW10      29.51F WCI  31
BROKEN BOW     MOSUNNY   41  34  76 NW14      29.53S
$$

NEZ041-046>049-061>064-073>077-083>087-221700-
SOUTH CENTRAL NEBRASKA

CITY           SKY/WX    TMP DP  RH WIND       PRES   REMARKS
GRAND ISLAND   LGT RAIN  41  36  82 NW15      29.53S
HASTINGS       LGT RAIN  42  35  76 NW17      29.53S
KEARNEY *      CLOUDY    39  34  81 W9        29.56S WCI  33
$$

NEZ011>018-030>034-042>045-221700-
NORTHEAST NEBRASKA

CITY           SKY/WX    TMP DP  RH WIND       PRES   REMARKS
NORFOLK        CLOUDY    41  39  93 NW13      29.46F
COLUMBUS *     CLOUDY    41  36  81 NW10      29.49S
TEKAMAH        LGT RAIN  43  41  93 SE14      29.49F
$$

NEZ050>053-065>068-078-088>093-221700-
SOUTHEAST NEBRASKA

CITY           SKY/WX    TMP DP  RH WIND       PRES   REMARKS
LINCOLN        CLOUDY    43  42  97 W7        29.50S
OMAHA EPPLEY   LGT RAIN  42  40  92 SE15      29.52F FOG
FALLS CITY     LGT RAIN  43  32  65 SE10      29.53F
$$

NEZ044-045-051>053-067-221700-
OMAHA AREA

CITY           SKY/WX    TMP DP  RH WIND       PRES   REMARKS
OMAHA EPPLEY   LGT RAIN  42  40  92 SE15      29.52F FOG
$$


USA.gov is the U.S. government's official web portal to all federal, state and local government web resources and services.